| time (UTC) | temp F | wind direction | speed MPH | gust MPH | rain 1hr in | rain 24hr in | rain mn in | humidity % | barometer mb |
| 20260905230742 | 58 | 187 | 1.0 | 2.0 | 0.00 | 0.00 | 0.00 | 71 | 1001.0 |
| 20260905230241 | 55 | 130 | 2.0 | 2.0 | 0.00 | 0.00 | 0.00 | 78 | 1000.9 |
| 20260905225725 | 55 | 259 | 2.0 | 2.0 | 0.00 | 0.00 | 0.00 | 84 | 1000.8 |
| 20260905225225 | 55 | 199 | 0.0 | 0.0 | 0.00 | 0.00 | 0.00 | 85 | 1000.6 |
| 20260905224724 | 56 | 222 | 0.0 | 0.0 | 0.00 | 0.00 | 0.00 | 84 | 1000.5 |
| 20260905224208 | 55 | 229 | 1.0 | 1.0 | 0.00 | 0.00 | 0.00 | 84 | 1000.7 |
| 20260905223708 | 55 | 161 | 0.0 | 0.0 | 0.00 | 0.00 | 0.00 | 87 | 1000.3 |
| 20260905223207 | 55 | 221 | 0.0 | 0.0 | 0.00 | 0.00 | 0.00 | 85 | 1000.5 |
| 20260905222707 | 55 | 244 | 3.0 | 3.0 | 0.00 | 0.00 | 0.00 | 87 | 1000.4 |
| 20260905222206 | 55 | 228 | 0.0 | 1.0 | 0.00 | 0.00 | 0.00 | 87 | 1000.7 |
| 20260905221706 | 55 | 201 | 1.0 | 2.0 | 0.00 | 0.00 | 0.00 | 86 | 1000.6 |
| 20260905221205 | 55 | 254 | 2.0 | 3.0 | 0.00 | 0.00 | 0.00 | 86 | 1000.6 |
| 20260905220704 | 55 | 221 | 1.0 | 1.0 | 0.00 | 0.00 | 0.00 | 87 | 1000.4 |
| 20260905220204 | 55 | 234 | 2.0 | 2.0 | 0.00 | 0.00 | 0.00 | 89 | 1000.4 |
| 20260905215703 | 55 | 229 | 2.0 | 2.0 | 0.00 | 0.01 | 0.00 | 87 | 1000.6 |
| 20260905215203 | 55 | 230 | 2.0 | 2.0 | 0.00 | 0.01 | 0.00 | 87 | 1000.6 |
| 20260905214702 | 55 | 232 | 0.0 | 1.0 | 0.00 | 0.01 | 0.00 | 89 | 1000.4 |
| 20260905214202 | 54 | 230 | 1.0 | 1.0 | 0.00 | 0.01 | 0.00 | 92 | 1000.5 |
| 20260905213701 | 54 | 230 | 0.0 | 1.0 | 0.00 | 0.01 | 0.00 | 92 | 1000.5 |
| 20260905213201 | 54 | 229 | 0.0 | 0.0 | 0.00 | 0.01 | 0.00 | 93 | 1000.3 |
| 20260905212700 | 54 | 229 | 1.0 | 1.0 | 0.00 | 0.01 | 0.00 | 93 | 1000.4 |
| 20260905212200 | 54 | 231 | 1.0 | 1.0 | 0.00 | 0.01 | 0.00 | 94 | 1000.3 |
| 20260905211659 | 54 | 231 | 0.0 | 1.0 | 0.00 | 0.01 | 0.00 | 94 | 1000.3 |
| 20260905211159 | 54 | 231 | 0.0 | 0.0 | 0.00 | 0.01 | 0.00 | 94 | 1000.4 |
| 20260905210658 | 54 | 231 | 0.0 | 0.0 | 0.00 | 0.01 | 0.00 | 93 | 1000.3 |
| 20260905210158 | 54 | 231 | 0.0 | 0.0 | 0.00 | 0.01 | 0.00 | 93 | 1000.2 |
| 20260905205657 | 54 | 231 | 1.0 | 1.0 | 0.00 | 0.01 | 0.00 | 94 | 1000.1 |
| 20260905205127 | 54 | 231 | 0.0 | 0.0 | 0.00 | 0.01 | 0.00 | 95 | 1000.2 |
| 20260905204626 | 53 | 231 | 0.0 | 0.0 | 0.00 | 0.01 | 0.00 | 95 | 1000.3 |
| 20260905204126 | 53 | 231 | 0.0 | 0.0 | 0.00 | 0.01 | 0.00 | 95 | 1000.2 |
| 20260905203625 | 53 | 231 | 2.0 | 2.0 | 0.00 | 0.01 | 0.00 | 95 | 1000.2 |
| 20260905203110 | 53 | 231 | 0.0 | 0.0 | 0.00 | 0.01 | 0.00 | 95 | 1000.3 |
| 20260905202555 | 53 | 231 | 0.0 | 0.0 | 0.00 | 0.01 | 0.00 | 95 | 1000.3 |
| 20260905202054 | 54 | 231 | 0.0 | 0.0 | 0.00 | 0.01 | 0.00 | 94 | 1000.3 |
| 20260905201553 | 54 | 231 | 0.0 | 0.0 | 0.00 | 0.01 | 0.00 | 94 | 1000.1 |
| 20260905201053 | 54 | 231 | 0.0 | 0.0 | 0.00 | 0.01 | 0.00 | 93 | 1000.2 |
| 20260905200552 | 54 | 231 | 0.0 | 0.0 | 0.00 | 0.01 | 0.00 | 93 | 1000.3 |
| 20260905200037 | 54 | 231 | 0.0 | 0.0 | 0.00 | 0.01 | 0.00 | 93 | 1000.2 |
| 20260905195521 | 54 | 231 | 0.0 | 0.0 | 0.00 | 0.01 | 0.00 | 93 | 1000.2 |
| 20260905195021 | 54 | 230 | 0.0 | 0.0 | 0.00 | 0.01 | 0.00 | 92 | 1000.1 |
| 20260905194520 | 54 | 231 | 0.0 | 0.0 | 0.00 | 0.01 | 0.00 | 92 | 999.9 |
| 20260905194020 | 54 | 231 | 0.0 | 0.0 | 0.00 | 0.01 | 0.00 | 92 | 1000.0 |
| 20260905193519 | 54 | 230 | 0.0 | 0.0 | 0.00 | 0.01 | 0.00 | 92 | 999.8 |
| 20260905193004 | 54 | 231 | 0.0 | 0.0 | 0.00 | 0.01 | 0.00 | 91 | 1000.0 |
| 20260905192433 | 54 | 231 | 0.0 | 0.0 | 0.00 | 0.01 | 0.00 | 91 | 999.9 |
| 20260905191933 | 54 | 231 | 0.0 | 0.0 | 0.00 | 0.01 | 0.00 | 90 | 999.7 |
| 20260905191417 | 54 | 231 | 0.0 | 1.0 | 0.00 | 0.01 | 0.00 | 90 | 999.8 |
| 20260905190917 | 54 | 231 | 0.0 | 0.0 | 0.00 | 0.01 | 0.00 | 90 | 999.7 |
| 20260905190416 | 54 | 231 | 0.0 | 0.0 | 0.00 | 0.01 | 0.00 | 89 | 999.6 |
| 20260905185916 | 54 | 232 | 1.0 | 2.0 | 0.00 | 0.01 | 0.00 | 88 | 999.6 |
| 20260905185415 | 53 | 235 | 1.0 | 1.0 | 0.00 | 0.01 | 0.00 | 91 | 999.5 |
| 20260905184914 | 53 | 232 | 1.0 | 1.0 | 0.00 | 0.01 | 0.00 | 92 | 999.7 |
| 20260905184414 | 53 | 232 | 0.0 | 0.0 | 0.00 | 0.01 | 0.00 | 92 | 999.4 |
| 20260905183913 | 53 | 232 | 0.0 | 0.0 | 0.00 | 0.01 | 0.00 | 92 | 999.6 |
| 20260905183413 | 53 | 232 | 0.0 | 0.0 | 0.00 | 0.01 | 0.00 | 91 | 999.5 |
| 20260905182913 | 53 | 232 | 0.0 | 0.0 | 0.00 | 0.01 | 0.00 | 89 | 999.6 |
| 20260905182357 | 54 | 232 | 0.0 | 0.0 | 0.00 | 0.01 | 0.00 | 88 | 999.4 |
| 20260905181842 | 54 | 232 | 0.0 | 0.0 | 0.00 | 0.01 | 0.00 | 88 | 999.3 |
| 20260905181326 | 54 | 233 | 1.0 | 1.0 | 0.00 | 0.01 | 0.00 | 89 | 999.3 |
| 20260905180825 | 54 | 232 | 1.0 | 1.0 | 0.00 | 0.01 | 0.00 | 88 | 999.3 |
| 20260905180325 | 54 | 232 | 2.0 | 2.0 | 0.00 | 0.01 | 0.00 | 89 | 999.5 |
| 20260905175824 | 54 | 233 | 1.0 | 1.0 | 0.00 | 0.01 | 0.00 | 88 | 999.1 |
| 20260905175323 | 54 | 232 | 1.0 | 1.0 | 0.00 | 0.01 | 0.00 | 88 | 999.1 |
| 20260905174822 | 55 | 232 | 2.0 | 2.0 | 0.00 | 0.01 | 0.00 | 87 | 999.2 |
| 20260905174322 | 55 | 235 | 1.0 | 2.0 | 0.00 | 0.01 | 0.00 | 87 | 999.0 |
| 20260905173821 | 55 | 236 | 0.0 | 1.0 | 0.00 | 0.01 | 0.00 | 87 | 999.0 |
| 20260905173320 | 55 | 235 | 0.0 | 0.0 | 0.00 | 0.01 | 0.00 | 88 | 998.9 |
| 20260905172820 | 56 | 235 | 0.0 | 0.0 | 0.00 | 0.01 | 0.00 | 87 | 998.9 |
| 20260905172319 | 56 | 235 | 0.0 | 1.0 | 0.00 | 0.01 | 0.00 | 86 | 999.0 |
| 20260905171819 | 56 | 235 | 0.0 | 1.0 | 0.00 | 0.01 | 0.00 | 85 | 998.8 |
| 20260905171318 | 56 | 235 | 0.0 | 0.0 | 0.00 | 0.01 | 0.00 | 84 | 998.8 |
| 20260905170818 | 56 | 235 | 1.0 | 1.0 | 0.00 | 0.01 | 0.00 | 84 | 998.7 |
| 20260905170317 | 57 | 235 | 0.0 | 0.0 | 0.00 | 0.01 | 0.00 | 83 | 998.7 |
| 20260905165817 | 58 | 235 | 0.0 | 0.0 | 0.00 | 0.01 | 0.00 | 81 | 998.5 |
| 20260905165316 | 58 | 235 | 0.0 | 0.0 | 0.00 | 0.01 | 0.00 | 81 | 998.5 |
| 20260905164815 | 59 | 236 | 0.0 | 1.0 | 0.00 | 0.01 | 0.00 | 78 | 998.5 |
| 20260905164315 | 59 | 234 | 0.0 | 1.0 | 0.00 | 0.01 | 0.00 | 77 | 998.4 |
| 20260905163815 | 59 | 235 | 0.0 | 1.0 | 0.00 | 0.01 | 0.00 | 78 | 998.4 |
| 20260905163314 | 60 | 236 | 0.0 | 1.0 | 0.00 | 0.01 | 0.00 | 76 | 998.2 |
| 20260905162813 | 60 | 236 | 0.0 | 0.0 | 0.00 | 0.01 | 0.00 | 76 | 998.4 |
| 20260905162313 | 60 | 232 | 0.0 | 0.0 | 0.00 | 0.01 | 0.00 | 74 | 998.2 |
| 20260905161812 | 61 | 233 | 1.0 | 1.0 | 0.00 | 0.01 | 0.00 | 74 | 998.1 |
| 20260905161312 | 61 | 235 | 1.0 | 1.0 | 0.00 | 0.01 | 0.00 | 73 | 998.1 |
| 20260905160811 | 62 | 234 | 0.0 | 0.0 | 0.00 | 0.01 | 0.00 | 72 | 998.1 |
| 20260905160310 | 63 | 233 | 1.0 | 1.0 | 0.00 | 0.01 | 0.00 | 69 | 998.2 |
| 20260905155810 | 64 | 232 | 0.0 | 1.0 | 0.00 | 0.01 | 0.00 | 61 | 998.0 |
| 20260905155309 | 66 | 231 | 1.0 | 2.0 | 0.00 | 0.01 | 0.00 | 64 | 997.9 |
| 20260905154809 | 67 | 214 | 0.0 | 0.0 | 0.00 | 0.01 | 0.00 | 55 | 997.8 |
| 20260905154308 | 67 | 243 | 0.0 | 0.0 | 0.00 | 0.01 | 0.00 | 58 | 997.9 |
| 20260905153808 | 69 | 153 | 0.0 | 0.0 | 0.00 | 0.01 | 0.00 | 52 | 997.9 |
| 20260905153307 | 70 | 228 | 1.0 | 1.0 | 0.00 | 0.01 | 0.00 | 55 | 997.9 |
| 20260905152807 | 70 | 177 | 0.0 | 0.0 | 0.00 | 0.01 | 0.00 | 52 | 997.9 |
| 20260905152306 | 68 | 253 | 1.0 | 1.0 | 0.00 | 0.01 | 0.00 | 56 | 997.6 |
| 20260905151807 | 68 | 160 | 1.0 | 1.0 | 0.00 | 0.01 | 0.00 | 53 | 997.9 |
| 20260905151305 | 68 | 215 | 1.0 | 1.0 | 0.00 | 0.01 | 0.00 | 54 | 998.0 |
| 20260905150805 | 67 | 192 | 2.0 | 3.0 | 0.00 | 0.01 | 0.00 | 53 | 997.9 |
| 20260905150304 | 69 | 239 | 1.0 | 1.0 | 0.00 | 0.01 | 0.00 | 52 | 997.7 |
| 20260905145804 | 69 | 85 | 1.0 | 1.0 | 0.00 | 0.01 | 0.00 | 52 | 997.9 |
| 20260905145306 | 69 | 78 | 3.0 | 4.0 | 0.00 | 0.01 | 0.00 | 51 | 997.9 |
| 20260905144803 | 68 | 128 | 0.0 | 0.0 | 0.00 | 0.01 | 0.00 | 53 | 997.9 |
| 20260905144302 | 69 | 127 | 0.0 | 0.0 | 0.00 | 0.01 | 0.00 | 52 | 997.8 |
| 20260905143802 | 69 | 213 | 1.0 | 1.0 | 0.00 | 0.01 | 0.00 | 53 | 997.8 |
| 20260905143301 | 69 | 158 | 0.0 | 0.0 | 0.00 | 0.01 | 0.00 | 55 | 997.9 |
| 20260905142801 | 69 | 212 | 0.0 | 0.0 | 0.00 | 0.01 | 0.00 | 53 | 997.9 |
| 20260905142300 | 69 | 201 | 1.0 | 1.0 | 0.00 | 0.01 | 0.00 | 50 | 997.9 |
| 20260905141800 | 69 | 153 | 0.0 | 1.0 | 0.00 | 0.01 | 0.00 | 52 | 998.0 |
| 20260905141259 | 69 | 143 | 1.0 | 1.0 | 0.00 | 0.01 | 0.00 | 54 | 997.8 |
| 20260905140759 | 70 | 94 | 1.0 | 2.0 | 0.00 | 0.01 | 0.00 | 48 | 997.9 |
| 20260905140258 | 70 | 255 | 2.0 | 2.0 | 0.00 | 0.01 | 0.00 | 49 | 997.8 |
| 20260905135758 | 70 | 147 | 1.0 | 1.0 | 0.00 | 0.01 | 0.00 | 50 | 997.7 |
| 20260905135257 | 69 | 248 | 1.0 | 1.0 | 0.00 | 0.01 | 0.00 | 53 | 997.7 |
| 20260905134756 | 69 | 223 | 2.0 | 3.0 | 0.00 | 0.01 | 0.00 | 50 | 997.8 |
| 20260905134256 | 69 | 231 | 1.0 | 2.0 | 0.00 | 0.01 | 0.00 | 51 | 997.7 |
| 20260905133755 | 69 | 130 | 2.0 | 3.0 | 0.00 | 0.01 | 0.00 | 54 | 997.9 |
| 20260905133255 | 69 | 122 | 3.0 | 3.0 | 0.00 | 0.01 | 0.00 | 51 | 997.7 |
| 20260905132754 | 69 | 70 | 1.0 | 2.0 | 0.00 | 0.01 | 0.00 | 49 | 997.9 |
| 20260905132254 | 71 | 113 | 4.0 | 5.0 | 0.00 | 0.01 | 0.00 | 49 | 997.8 |
| 20260905131753 | 70 | 1 | 3.0 | 4.0 | 0.00 | 0.01 | 0.00 | 49 | 997.9 |
| 20260905131253 | 71 | 179 | 1.0 | 1.0 | 0.00 | 0.01 | 0.00 | 48 | 997.8 |
| 20260905130752 | 72 | 54 | 2.0 | 2.0 | 0.00 | 0.01 | 0.00 | 47 | 997.9 |
| 20260905130252 | 69 | 147 | 0.0 | 0.0 | 0.00 | 0.01 | 0.00 | 50 | 997.8 |
| 20260905125751 | 70 | 67 | 2.0 | 5.0 | 0.00 | 0.01 | 0.00 | 49 | 997.8 |
| 20260905125251 | 69 | 233 | 2.0 | 2.0 | 0.00 | 0.01 | 0.00 | 50 | 998.0 |
| 20260905124750 | 69 | 236 | 3.0 | 5.0 | 0.00 | 0.01 | 0.00 | 50 | 997.8 |
| 20260905124249 | 68 | 192 | 0.0 | 0.0 | 0.00 | 0.01 | 0.00 | 56 | 997.9 |
| 20260905123749 | 68 | 209 | 0.0 | 1.0 | 0.00 | 0.01 | 0.00 | 57 | 998.0 |
| 20260905123248 | 68 | 202 | 2.0 | 2.0 | 0.00 | 0.01 | 0.00 | 54 | 998.1 |
| 20260905122748 | 69 | 256 | 2.0 | 4.0 | 0.00 | 0.01 | 0.00 | 53 | 998.1 |
| 20260905122247 | 67 | 138 | 1.0 | 2.0 | 0.00 | 0.01 | 0.00 | 55 | 998.2 |
| 20260905121747 | 67 | 112 | 4.0 | 4.0 | 0.00 | 0.01 | 0.00 | 56 | 998.1 |
| 20260905121246 | 67 | 136 | 2.0 | 2.0 | 0.00 | 0.01 | 0.00 | 58 | 998.2 |
| 20260905120746 | 67 | 111 | 1.0 | 3.0 | 0.00 | 0.01 | 0.00 | 59 | 998.2 |
| 20260905120245 | 68 | 239 | 1.0 | 2.0 | 0.00 | 0.01 | 0.00 | 57 | 998.0 |
| 20260905115745 | 70 | 135 | 1.0 | 2.0 | 0.00 | 0.01 | 0.00 | 53 | 997.9 |
| 20260905115244 | 71 | 199 | 0.0 | 1.0 | 0.00 | 0.01 | 0.00 | 55 | 998.0 |
| 20260905114743 | 68 | 168 | 0.0 | 1.0 | 0.00 | 0.01 | 0.00 | 56 | 998.2 |
| 20260905114243 | 67 | 238 | 1.0 | 2.0 | 0.00 | 0.01 | 0.00 | 60 | 998.3 |
| 20260905113742 | 67 | 157 | 0.0 | 0.0 | 0.00 | 0.01 | 0.00 | 61 | 998.2 |
| 20260905113242 | 67 | 220 | 0.0 | 0.0 | 0.00 | 0.01 | 0.00 | 62 | 998.2 |
| 20260905112741 | 69 | 124 | 2.0 | 2.0 | 0.00 | 0.01 | 0.00 | 61 | 998.2 |
| 20260905112241 | 67 | 205 | 1.0 | 2.0 | 0.00 | 0.01 | 0.00 | 62 | 998.4 |
| 20260905111740 | 68 | 182 | 0.0 | 1.0 | 0.00 | 0.01 | 0.00 | 60 | 998.3 |
| 20260905111240 | 66 | 159 | 0.0 | 1.0 | 0.00 | 0.01 | 0.00 | 65 | 998.4 |
| 20260905110739 | 67 | 111 | 5.0 | 6.0 | 0.00 | 0.01 | 0.00 | 62 | 998.3 |
| 20260905110239 | 67 | 194 | 0.0 | 0.0 | 0.00 | 0.01 | 0.00 | 64 | 998.4 |
| 20260905105737 | 67 | 114 | 1.0 | 1.0 | 0.00 | 0.01 | 0.00 | 62 | 998.4 |
| 20260905105237 | 67 | 143 | 0.0 | 0.0 | 0.00 | 0.01 | 0.00 | 66 | 998.5 |
| 20260905104736 | 67 | 223 | 1.0 | 1.0 | 0.00 | 0.01 | 0.00 | 64 | 998.6 |
| 20260905104236 | 65 | 174 | 1.0 | 2.0 | 0.00 | 0.01 | 0.00 | 67 | 998.6 |
| 20260905103735 | 66 | 212 | 0.0 | 0.0 | 0.00 | 0.01 | 0.00 | 70 | 998.6 |
| 20260905103234 | 66 | 180 | 0.0 | 0.0 | 0.00 | 0.01 | 0.00 | 70 | 998.6 |
| 20260905102734 | 65 | 158 | 0.0 | 0.0 | 0.00 | 0.01 | 0.00 | 70 | 998.3 |
| 20260905102233 | 65 | 217 | 1.0 | 1.0 | 0.00 | 0.01 | 0.00 | 71 | 998.3 |
| 20260905101733 | 64 | 166 | 0.0 | 0.0 | 0.00 | 0.01 | 0.00 | 77 | 998.7 |
| 20260905101232 | 63 | 261 | 0.0 | 1.0 | 0.00 | 0.01 | 0.00 | 75 | 998.2 |
| 20260905100732 | 63 | 177 | 0.0 | 0.0 | 0.00 | 0.01 | 0.00 | 75 | 998.4 |
| 20260905100231 | 63 | 222 | 1.0 | 2.0 | 0.00 | 0.01 | 0.00 | 74 | 998.4 |
| 20260905095731 | 63 | 120 | 0.0 | 1.0 | 0.00 | 0.01 | 0.00 | 73 | 998.3 |
| 20260905095231 | 63 | 113 | 0.0 | 0.0 | 0.00 | 0.01 | 0.00 | 74 | 998.1 |
| 20260905094730 | 63 | 112 | 1.0 | 1.0 | 0.00 | 0.01 | 0.00 | 73 | 998.0 |
| 20260905094229 | 63 | 88 | 1.0 | 1.0 | 0.00 | 0.01 | 0.00 | 73 | 997.7 |
| 20260905093729 | 63 | 117 | 2.0 | 3.0 | 0.00 | 0.01 | 0.00 | 75 | 997.6 |
| 20260905093229 | 63 | 252 | 0.0 | 0.0 | 0.00 | 0.01 | 0.00 | 73 | 997.9 |
| 20260905092728 | 63 | 132 | 1.0 | 2.0 | 0.00 | 0.01 | 0.00 | 73 | 998.2 |
| 20260905092227 | 63 | 200 | 2.0 | 3.0 | 0.00 | 0.01 | 0.00 | 71 | 998.1 |
| 20260905091727 | 63 | 236 | 1.0 | 1.0 | 0.00 | 0.01 | 0.00 | 72 | 998.2 |
| 20260905091226 | 64 | 215 | 1.0 | 2.0 | 0.00 | 0.01 | 0.00 | 70 | 997.9 |
| 20260905090726 | 64 | 162 | 0.0 | 0.0 | 0.00 | 0.01 | 0.00 | 72 | 998.2 |
| 20260905090225 | 63 | 212 | 0.0 | 0.0 | 0.00 | 0.01 | 0.00 | 72 | 998.0 |
| 20260905085725 | 63 | 89 | 1.0 | 1.0 | 0.00 | 0.01 | 0.00 | 75 | 998.1 |
| 20260905085224 | 63 | 223 | 0.0 | 0.0 | 0.00 | 0.01 | 0.00 | 73 | 998.7 |
| 20260905084724 | 63 | 157 | 0.0 | 1.0 | 0.00 | 0.01 | 0.00 | 75 | 998.5 |
| 20260905084223 | 63 | 237 | 2.0 | 3.0 | 0.00 | 0.01 | 0.00 | 74 | 998.9 |
| 20260905083723 | 63 | 185 | 0.0 | 0.0 | 0.00 | 0.01 | 0.00 | 72 | 997.4 |
| 20260905083222 | 63 | 129 | 0.0 | 0.0 | 0.00 | 0.01 | 0.00 | 74 | 998.2 |
| 20260905082722 | 62 | 105 | 1.0 | 1.0 | 0.00 | 0.01 | 0.00 | 73 | 998.0 |
| 20260905082221 | 62 | 84 | 3.0 | 4.0 | 0.00 | 0.01 | 0.00 | 75 | 997.8 |
| 20260905081721 | 62 | 136 | 0.0 | 0.0 | 0.00 | 0.01 | 0.00 | 76 | 997.6 |
| 20260905081220 | 62 | 179 | 0.0 | 0.0 | 0.00 | 0.01 | 0.00 | 76 | 997.8 |
| 20260905080720 | 62 | 212 | 0.0 | 1.0 | 0.00 | 0.01 | 0.00 | 80 | 997.7 |
| 20260905080219 | 62 | 198 | 0.0 | 0.0 | 0.00 | 0.01 | 0.00 | 79 | 997.5 |
| 20260905075719 | 62 | 172 | 0.0 | 0.0 | 0.00 | 0.01 | 0.00 | 76 | 997.4 |
| 20260905075218 | 62 | 93 | 0.0 | 0.0 | 0.00 | 0.01 | 0.00 | 69 | 997.4 |
| 20260905074718 | 63 | 144 | 2.0 | 3.0 | 0.00 | 0.01 | 0.00 | 69 | 997.3 |
| 20260905074218 | 63 | 200 | 2.0 | 3.0 | 0.00 | 0.01 | 0.00 | 66 | 997.3 |
| 20260905073717 | 64 | 113 | 2.0 | 2.0 | 0.00 | 0.01 | 0.00 | 63 | 997.7 |
| 20260905073217 | 64 | 180 | 1.0 | 1.0 | 0.00 | 0.01 | 0.00 | 63 | 997.8 |
| 20260905072716 | 63 | 217 | 1.0 | 1.0 | 0.00 | 0.01 | 0.00 | 65 | 997.2 |
| 20260905072216 | 64 | 178 | 1.0 | 2.0 | 0.00 | 0.01 | 0.00 | 63 | 996.8 |
| 20260905071715 | 64 | 217 | 1.0 | 2.0 | 0.00 | 0.01 | 0.00 | 60 | 997.0 |
| 20260905071214 | 64 | 214 | 4.0 | 5.0 | 0.00 | 0.01 | 0.00 | 63 | 997.3 |
| 20260905070714 | 64 | 132 | 1.0 | 1.0 | 0.00 | 0.01 | 0.00 | 65 | 997.2 |
| 20260905070213 | 64 | 187 | 2.0 | 3.0 | 0.00 | 0.01 | 0.00 | 65 | 997.1 |
| 20260905065713 | 64 | 94 | 0.0 | 0.0 | 0.00 | 0.01 | 0.00 | 69 | 996.8 |
| 20260905065213 | 64 | 174 | 0.0 | 0.0 | 0.00 | 0.01 | 0.00 | 71 | 996.7 |
| 20260905064712 | 64 | 133 | 2.0 | 3.0 | 0.00 | 0.01 | 0.00 | 69 | 996.8 |
| 20260905064212 | 63 | 99 | 0.0 | 1.0 | 0.00 | 0.01 | 0.00 | 75 | 997.0 |
| 20260905063711 | 62 | 235 | 1.0 | 2.0 | 0.00 | 0.01 | 0.00 | 80 | 996.9 |
| 20260905063210 | 61 | 196 | 0.0 | 0.0 | 0.00 | 0.01 | 0.00 | 81 | 997.1 |
| 20260905062710 | 62 | 166 | 0.0 | 0.0 | 0.00 | 0.01 | 0.00 | 83 | 997.0 |
| 20260905062209 | 62 | 125 | 0.0 | 0.0 | 0.00 | 0.01 | 0.00 | 82 | 996.8 |
| 20260905061709 | 61 | 209 | 1.0 | 2.0 | 0.00 | 0.01 | 0.00 | 81 | 996.6 |
| 20260905061209 | 61 | 192 | 1.0 | 2.0 | 0.00 | 0.01 | 0.00 | 90 | 996.6 |
| 20260905060708 | 60 | 194 | 1.0 | 1.0 | 0.00 | 0.01 | 0.00 | 92 | 996.4 |
| 20260905060208 | 60 | 176 | 0.0 | 0.0 | 0.00 | 0.01 | 0.00 | 92 | 996.3 |
| 20260905055707 | 60 | 203 | 0.0 | 0.0 | 0.00 | 0.01 | 0.00 | 93 | 996.5 |
| 20260905055206 | 60 | 122 | 0.0 | 0.0 | 0.00 | 0.01 | 0.00 | 93 | 996.4 |
| 20260905054706 | 60 | 121 | 0.0 | 0.0 | 0.00 | 0.01 | 0.00 | 93 | 996.3 |
| 20260905054205 | 60 | 121 | 0.0 | 0.0 | 0.00 | 0.01 | 0.00 | 94 | 996.2 |
| 20260905053705 | 60 | 122 | 0.0 | 0.0 | 0.00 | 0.01 | 0.00 | 94 | 996.5 |
| 20260905053204 | 60 | 121 | 0.0 | 0.0 | 0.00 | 0.01 | 0.00 | 93 | 996.1 |
| 20260905052704 | 60 | 239 | 0.0 | 0.0 | 0.00 | 0.01 | 0.00 | 92 | 996.0 |
| 20260905052203 | 59 | 235 | 0.0 | 0.0 | 0.00 | 0.01 | 0.00 | 92 | 996.0 |
| 20260905051703 | 59 | 236 | 1.0 | 1.0 | 0.00 | 0.01 | 0.00 | 93 | 996.0 |
| 20260905051202 | 59 | 235 | 0.0 | 0.0 | 0.00 | 0.01 | 0.00 | 93 | 995.8 |
| 20260905050702 | 59 | 235 | 0.0 | 1.0 | 0.00 | 0.01 | 0.00 | 93 | 995.7 |
| 20260905050201 | 59 | 235 | 0.0 | 0.0 | 0.00 | 0.01 | 0.00 | 94 | 995.5 |
| 20260905045700 | 59 | 240 | 1.0 | 1.0 | 0.00 | 0.01 | 0.00 | 95 | 995.3 |
| 20260905045200 | 59 | 231 | 1.0 | 1.0 | 0.00 | 0.01 | 0.00 | 94 | 995.3 |
| 20260905044659 | 59 | 227 | 0.0 | 0.0 | 0.00 | 0.01 | 0.00 | 95 | 995.4 |
| 20260905044159 | 58 | 227 | 0.0 | 0.0 | 0.00 | 0.01 | 0.00 | 95 | 995.6 |
| 20260905043658 | 58 | 228 | 0.0 | 0.0 | 0.00 | 0.01 | 0.00 | 95 | 995.5 |
| 20260905043158 | 58 | 228 | 0.0 | 0.0 | 0.00 | 0.01 | 0.00 | 95 | 995.4 |
| 20260905042657 | 58 | 227 | 0.0 | 0.0 | 0.00 | 0.01 | 0.00 | 95 | 995.5 |
| 20260905042157 | 58 | 225 | 1.0 | 2.0 | 0.00 | 0.01 | 0.00 | 94 | 995.8 |
| 20260905041656 | 59 | 245 | 2.0 | 2.0 | 0.00 | 0.01 | 0.00 | 94 | 995.5 |
| 20260905041156 | 59 | 244 | 1.0 | 2.0 | 0.00 | 0.01 | 0.00 | 93 | 995.8 |
| 20260905040655 | 59 | 222 | 0.0 | 0.0 | 0.00 | 0.01 | 0.00 | 91 | 995.8 |
| 20260905040155 | 59 | 210 | 0.0 | 1.0 | 0.00 | 0.01 | 0.00 | 93 | 995.7 |
| 20260905035654 | 60 | 245 | 0.0 | 1.0 | 0.00 | 0.01 | 0.00 | 92 | 996.0 |
| 20260905035154 | 60 | 224 | 0.0 | 0.0 | 0.00 | 0.01 | 0.00 | 91 | 996.0 |
| 20260905034653 | 60 | 248 | 1.0 | 1.0 | 0.00 | 0.01 | 0.00 | 89 | 996.0 |
| 20260905034153 | 60 | 184 | 0.0 | 0.0 | 0.00 | 0.01 | 0.00 | 88 | 996.0 |
| 20260905033652 | 60 | 266 | 2.0 | 3.0 | 0.00 | 0.01 | 0.00 | 89 | 996.3 |
| 20260905033152 | 61 | 264 | 0.0 | 0.0 | 0.07 | 0.01 | 0.00 | 85 | 996.4 |
| 20260905032651 | 63 | 195 | 0.0 | 0.0 | 0.07 | 0.01 | 0.00 | 80 | 996.3 |
| 20260905032151 | 63 | 174 | 0.0 | 0.0 | 0.00 | 0.00 | 0.00 | 76 | 996.0 |
| 20260905031650 | 63 | 231 | 2.0 | 3.0 | 0.00 | 0.00 | 0.00 | 77 | 996.4 |
| 20260905031150 | 64 | 261 | 1.0 | 2.0 | 0.00 | 0.00 | 0.00 | 75 | 996.1 |
| 20260905030649 | 64 | 185 | 1.0 | 1.0 | 0.00 | 0.00 | 0.00 | 73 | 996.0 |
| 20260905030148 | 64 | 132 | 2.0 | 3.0 | 0.00 | 0.00 | 0.00 | 75 | 995.9 |
| 20260905025648 | 64 | 204 | 1.0 | 2.0 | 0.00 | 0.00 | 0.00 | 76 | 995.7 |
| 20260905025148 | 65 | 197 | 0.0 | 1.0 | 0.00 | 0.00 | 0.00 | 75 | 995.5 |
| 20260905024647 | 65 | 123 | 2.0 | 3.0 | 0.00 | 0.00 | 0.00 | 75 | 995.6 |
| 20260905024147 | 62 | 125 | 3.0 | 3.0 | 0.00 | 0.00 | 0.00 | 80 | 995.7 |
| 20260905023646 | 60 | 129 | 1.0 | 1.0 | 0.00 | 0.00 | 0.00 | 86 | 995.8 |
| 20260905023146 | 59 | 214 | 0.0 | 0.0 | 0.00 | 0.00 | 0.00 | 87 | 995.4 |
| 20260905022645 | 59 | 210 | 1.0 | 2.0 | 0.00 | 0.00 | 0.00 | 88 | 995.0 |
| 20260905022145 | 59 | 248 | 2.0 | 3.0 | 0.00 | 0.00 | 0.00 | 87 | 995.1 |
| 20260905021644 | 59 | 202 | 0.0 | 0.0 | 0.00 | 0.00 | 0.00 | 86 | 994.8 |
| 20260905021144 | 59 | 215 | 0.0 | 1.0 | 0.00 | 0.00 | 0.00 | 86 | 994.8 |
| 20260905020643 | 59 | 227 | 0.0 | 1.0 | 0.00 | 0.00 | 0.00 | 85 | 994.8 |
| 20260905020143 | 59 | 243 | 2.0 | 2.0 | 0.00 | 0.00 | 0.00 | 86 | 994.5 |
| 20260905015642 | 60 | 138 | 0.0 | 0.0 | 0.00 | 0.00 | 0.00 | 85 | 994.7 |
| 20260905015142 | 61 | 143 | 0.0 | 1.0 | 0.00 | 0.00 | 0.00 | 83 | 994.4 |
| 20260905014641 | 61 | 236 | 0.0 | 0.0 | 0.00 | 0.00 | 0.00 | 80 | 994.5 |
| 20260905014141 | 62 | 229 | 2.0 | 2.0 | 0.00 | 0.00 | 0.00 | 79 | 994.1 |
| 20260905013640 | 63 | 221 | 0.0 | 0.0 | 0.00 | 0.00 | 0.00 | 76 | 994.1 |
| 20260905013139 | 63 | 215 | 0.0 | 0.0 | 0.00 | 0.00 | 0.00 | 76 | 993.9 |
| 20260905012639 | 64 | 200 | 0.0 | 1.0 | 0.00 | 0.00 | 0.00 | 75 | 993.8 |
| 20260905012138 | 64 | 262 | 0.0 | 0.0 | 0.00 | 0.00 | 0.00 | 72 | 994.1 |
| 20260905011638 | 64 | 62 | 1.0 | 3.0 | 0.00 | 0.00 | 0.00 | 72 | 994.0 |
| 20260905011137 | 64 | 177 | 0.0 | 1.0 | 0.00 | 0.00 | 0.00 | 72 | 993.3 |
| 20260905010637 | 64 | 185 | 0.0 | 1.0 | 0.00 | 0.00 | 0.00 | 72 | 993.2 |
| 20260905010136 | 64 | 208 | 0.0 | 1.0 | 0.00 | 0.00 | 0.00 | 71 | 993.2 |
| 20260905005636 | 64 | 207 | 2.0 | 3.0 | 0.00 | 0.00 | 0.00 | 71 | 993.0 |
| 20260905005135 | 64 | 206 | 2.0 | 3.0 | 0.00 | 0.00 | 0.00 | 70 | 993.0 |
| 20260905004634 | 64 | 232 | 3.0 | 4.0 | 0.00 | 0.00 | 0.00 | 71 | 992.9 |
| 20260905004134 | 63 | 219 | 3.0 | 4.0 | 0.00 | 0.00 | 0.00 | 74 | 993.0 |
| 20260905003633 | 64 | 245 | 3.0 | 3.0 | 0.00 | 0.00 | 0.00 | 72 | 993.0 |
| 20260905003133 | 63 | 231 | 2.0 | 2.0 | 0.00 | 0.00 | 0.00 | 74 | 993.0 |
| 20260905002632 | 64 | 219 | 2.0 | 3.0 | 0.00 | 0.00 | 0.00 | 72 | 993.1 |
| 20260905002132 | 63 | 232 | 2.0 | 3.0 | 0.00 | 0.00 | 0.00 | 73 | 993.0 |
| 20260905001631 | 65 | 232 | 3.0 | 3.0 | 0.00 | 0.00 | 0.00 | 71 | 993.1 |
| 20260905001131 | 65 | 226 | 5.0 | 6.0 | 0.00 | 0.00 | 0.00 | 68 | 992.9 |
| 20260905000630 | 65 | 240 | 4.0 | 5.0 | 0.00 | 0.00 | 0.00 | 69 | 993.0 |
| 20260905000130 | 65 | 229 | 4.0 | 5.0 | 0.00 | 0.00 | 0.00 | 69 | 992.9 |
| 20260904235629 | 65 | 226 | 4.0 | 5.0 | 0.00 | 0.00 | 0.00 | 68 | 992.9 |
| 20260904235129 | 65 | 226 | 5.0 | 6.0 | 0.00 | 0.00 | 0.00 | 68 | 992.6 |
| 20260904234628 | 65 | 228 | 3.0 | 4.0 | 0.00 | 0.00 | 0.00 | 69 | 992.7 |
| 20260904234128 | 65 | 237 | 1.0 | 2.0 | 0.00 | 0.00 | 0.00 | 69 | 992.8 |
| 20260904233627 | 65 | 222 | 4.0 | 5.0 | 0.00 | 0.00 | 0.00 | 69 | 992.8 |
| 20260904233127 | 65 | 211 | 2.0 | 3.0 | 0.00 | 0.00 | 0.00 | 69 | 992.9 |
| 20260904232626 | 66 | 239 | 2.0 | 2.0 | 0.00 | 0.00 | 0.00 | 68 | 992.7 |
| 20260904232126 | 65 | 193 | 3.0 | 4.0 | 0.00 | 0.00 | 0.00 | 68 | 992.9 |
| 20260904231625 | 65 | 231 | 3.0 | 3.0 | 0.00 | 0.00 | 0.00 | 68 | 992.9 |
| 20260904231125 | 66 | 224 | 3.0 | 4.0 | 0.00 | 0.00 | 0.00 | 68 | 993.0 |